[[{"header":{"parameterUnit":"m.s-1","parameterCategory":1,"la1":30.2991,"la2":30.254,"lo1":-89.0895,"lo2":-89.0444,"dx":0.0017,"dy":0.0017,"nx":28,"ny":28,"refTime":"2022-11-03T15:00:00:Z","depth":0,"parameterNumber":2,"parameterNumberName":"U-component_of_WINDS"},"data":[0,0,0,0,0,0,0,0,0,0,0,0,0,0,0,0,0,0,0,0,0,0,0,0,0,0,0,0,0,0,0,0,0,0,0,0,0,0,0,0,0,0,0,0,0,0,0,0,0,0,0,0,0,0,0,0,0,0,-1.8489,-1.8489,0,-1.8509,-1.8509,-1.851,-1.8459,-1.8458,-1.8456,-1.8454,-1.8477,-1.8479,-1.8481,0,0,0,0,0,0,0,0,0,0,0,0,0,-1.8411,-1.8413,-1.8489,-1.8489,-1.849,-1.8509,-1.8509,-1.851,-1.8459,-1.8458,-1.8456,-1.8454,-1.8476,-1.8479,-1.8481,0,0,0,0,0,0,0,0,0,0,0,0,0,-1.844,-1.8413,-1.8489,-1.8467,-1.8465,-1.8509,-1.8509,-1.851,-1.846,-1.8457,-1.8455,-1.8453,-1.8476,-1.8479,-1.8482,-1.8549,0,0,-1.8491,-1.8493,0,0,0,0,0,0,0,0,-1.8438,-1.8442,-1.847,-1.8468,-1.8466,-1.8479,-1.849,-1.8523,-1.846,-1.8462,-1.8454,-1.8452,-1.848,-1.8482,-1.8492,-1.855,-1.8551,-1.8492,-1.8493,-1.8495,-1.8496,0,0,0,0,0,0,0,-1.8436,-1.8441,-1.8497,-1.847,-1.8468,-1.8457,-1.8459,-1.8496,-1.8484,-1.8462,-1.8458,-1.8461,-1.8478,-1.8489,-1.8492,-1.8551,-1.8491,-1.8494,-1.8496,-1.8497,-1.867,-1.8672,0,0,0,0,0,0,-1.8437,-1.844,-1.8496,-1.8498,-1.8446,-1.8461,-1.8462,-1.8478,-1.8483,-1.8482,-1.8463,-1.8459,-1.8484,-1.8488,-1.8492,-1.8573,-1.8495,-1.8498,-1.8499,-1.8667,-1.867,-1.8673,0,0,0,0,0,0,-1.8435,-1.8442,-1.8496,-1.8468,-1.8474,-1.8464,-1.8482,-1.8479,-1.8489,-1.8485,-1.8482,-1.8475,-1.8483,-1.8488,-1.8536,-1.8573,-1.8499,-1.8502,-1.8664,-1.8668,-1.8672,-1.8735,0,0,0,0,0,0,-1.8433,-1.8442,-1.8466,-1.8469,-1.8476,-1.8538,-1.8484,-1.8481,-1.8495,-1.8489,-1.8496,-1.8494,-1.8481,-1.8531,-1.8539,-1.8576,-1.8504,-1.866,-1.8666,-1.867,-1.8729,-1.8741,-1.875,0,0,0,0,0,-1.843,-1.8483,-1.8467,-1.8474,-1.8505,-1.854,-1.8544,-1.8527,-1.8498,-1.8523,-1.8521,-1.8494,-1.8568,-1.8537,-1.8545,-1.8584,-1.8658,-1.8664,-1.867,-1.8725,-1.8738,-1.875,0,0,0,0,0,0,-1.8484,-1.8482,-1.8465,-1.852,-1.8531,-1.8531,-1.8562,-1.8542,-1.8561,-1.8555,-1.8534,-1.8536,-1.8589,-1.8591,-1.8556,-1.8651,-1.8608,-1.8616,-1.8647,-1.866,-1.867,-1.8669,-1.8507,0,0,0,0,0,-1.8502,-1.8529,-1.8527,-1.8575,-1.8581,-1.8571,-1.8585,-1.8572,-1.8582,-1.8586,-1.8587,-1.8599,-1.8626,-1.8643,-1.8667,-1.873,-1.8732,-1.8761,-1.8772,-1.878,-1.8787,-1.8824,-1.8838,-1.8693,-1.8693,-1.8693,0,0,-1.854,-1.8542,-1.856,-1.8586,-1.8592,-1.8623,-1.8575,-1.8608,-1.8631,-1.8592,-1.8637,-1.8639,-1.8651,-1.8708,-1.8733,-1.8711,-1.8828,-1.8788,-1.8795,-1.8797,-1.8832,-1.8846,-1.8858,-1.8697,-1.8697,-1.8696,0,0,-1.8624,-1.8628,-1.867,-1.8678,-1.8689,-1.8682,-1.8693,-1.8697,-1.8697,-1.8743,-1.8715,-1.8742,-1.8787,-1.8798,-1.8809,-1.8902,-1.8879,-1.891,-1.8965,-1.9001,-1.9012,-1.9022,-1.9057,-1.907,-1.8918,-1.8918,-1.8918,0,-1.8669,-1.8712,-1.8694,-1.873,-1.8743,-1.871,-1.8754,-1.8763,-1.8781,-1.8792,-1.8767,-1.8825,-1.8831,-1.8891,-1.8914,-1.8924,-1.8937,-1.8909,-1.9012,-1.9022,-1.9031,-1.9064,-1.9077,-1.8922,-1.8921,-1.8921,-1.892,0,-1.8769,-1.88,-1.8833,-1.8852,-1.8869,-1.8908,-1.8898,-1.8918,-1.8904,-1.8901,-1.895,-1.8956,-1.8982,-1.8995,-1.8981,-1.9055,-1.9041,-1.9015,-1.8972,-1.9049,-1.908,-1.9092,-1.8927,-1.8926,-1.8924,-1.8924,0,0,-1.8885,-1.8896,-1.8908,-1.8918,-1.8929,-1.8953,-1.8993,-1.9018,-1.9037,-1.9052,-1.9086,-1.9126,-1.9103,-1.9116,-1.9104,-1.9136,-1.9212,-1.9106,-1.9106,-1.9127,-1.9296,-1.9316,-1.9331,-1.9198,-1.92,-1.9202,-1.9296,0,-1.8969,-1.9036,-1.9022,-1.9089,-1.9118,-1.9089,-1.9124,-1.9137,-1.9136,-1.9162,-1.9161,-1.9191,-1.9157,-1.9165,-1.9196,-1.9196,-1.9246,-1.9189,-1.9231,-1.9232,-1.9229,-1.9347,-1.9367,-1.9456,-1.9307,-1.9309,-1.9311,0,-1.9075,-1.9095,-1.9164,-1.9174,-1.9186,-1.9217,-1.9241,-1.9267,-1.9281,-1.9278,-1.9295,-1.9278,-1.932,-1.9277,-1.9336,-1.9298,-1.9315,-1.9318,-1.9321,-1.9325,-1.9276,-1.9355,-1.9483,-1.9497,-1.9329,-1.9328,-1.9327,0,-1.9154,-1.9198,-1.9246,-1.9256,-1.9268,-1.9291,-1.9297,-1.9309,-1.9327,-1.9348,-1.936,-1.9386,-1.9401,-1.9423,-1.9415,-1.9383,-1.9476,-1.9432,-1.9477,-1.9478,-1.9497,-1.9496,-1.9631,-1.9507,-1.9507,-1.9507,-1.9507,0,-1.925,-1.9294,-1.9283,-1.9312,-1.9362,-1.9347,-1.9398,-1.9401,-1.9412,-1.9444,-1.9421,-1.9451,-1.9438,-1.9468,-1.9462,-1.9514,-1.952,-1.9521,-1.9519,-1.9523,-1.9523,-1.9533,-1.9527,-1.951,-1.951,-1.9509,-1.9508,0,-1.9346,-1.934,-1.9391,-1.9399,-1.9403,-1.9439,-1.9447,-1.9476,-1.9475,-1.9515,-1.9524,-1.9522,-1.9557,-1.9551,-1.9589,-1.9585,-1.965,-1.964,-1.9645,-1.9643,-1.9689,-1.9686,-1.9836,-1.9856,-1.9718,-1.972,-1.9721,0,-1.9407,-1.9441,-1.9453,-1.9473,-1.9481,-1.9512,-1.953,-1.9519,-1.9539,-1.956,-1.9587,-1.962,-1.9645,-1.9703,-1.9706,-1.9736,-1.9727,-1.9778,-1.9732,-1.9736,-1.973,-1.9728,-1.9733,-1.9787,-1.9789,-1.979,-1.9791,0,-1.9517,-1.9514,-1.954,-1.9567,-1.9589,-1.961,-1.9628,-1.9645,-1.9636,-1.966,-1.9695,-1.9715,-1.9756,-1.979,-1.9819,-1.9827,-1.9809,-1.9806,-1.9819,-1.9823,-1.9826,-1.9827,-1.9671,-1.9803,-1.9801,-1.9801,-1.98,-1.98,-1.9599,-1.9628,-1.9643,-1.9674,-1.9687,-1.9706,-1.9734,-1.9737,-1.9766,-1.9798,-1.979,-1.9831,-1.9848,-1.9885,-1.9897,-1.9931,-1.9912,-1.9929,-1.9934,-1.9939,-1.9945,-1.982,-1.9936,-1.9936,-1.9935,-1.9935,-1.9935,0,-1.9709,-1.9718,-1.9747,-1.9774,-1.9799,-1.978,-1.98,-1.9823,-1.9859,-1.9877,-1.9903,-1.9946,-1.9979,-1.9987,-2.0019,-2.0045,-2.0038,-2.0054,-2.0052,-2.0055,-1.9959,-1.9946,-2.006,-2.006,-2.006,-2.006,-2.006,-2.006,-1.9769,-1.9819,-1.9818,-1.9875,-1.9884,-1.9923,-1.9937,-1.9955,-1.9969,-2.0018,-2.0046,-2.005,-2.0065,-2.0099,-2.013,-2.0132,-2.0146,-2.0166,-2.0164,-2.0074,-2.0062,-2.005,-2.0037,-2.0169,-2.0169,-2.0258,-2.0259,-2.0259]},{"header":{"parameterUnit":"m.s-1","parameterCategory":1,"la1":30.2991,"la2":30.254,"lo1":-89.0895,"lo2":-89.0444,"dx":0.0017,"dy":0.0017,"nx":28,"ny":28,"refTime":"2022-11-03T15:00:00:Z","depth":0,"parameterNumber":3,"parameterNumberName":"V-component_of_WINDS"},"data":[0,0,0,0,0,0,0,0,0,0,0,0,0,0,0,0,0,0,0,0,0,0,0,0,0,0,0,0,0,0,0,0,0,0,0,0,0,0,0,0,0,0,0,0,0,0,0,0,0,0,0,0,0,0,0,0,0,0,1.6399,1.6399,0,1.6415,1.6415,1.6415,1.6442,1.6443,1.6443,1.6443,1.6456,1.6456,1.6456,0,0,0,0,0,0,0,0,0,0,0,0,0,1.6388,1.6388,1.6399,1.6399,1.6399,1.6415,1.6415,1.6415,1.6442,1.6443,1.6443,1.6444,1.6456,1.6456,1.6456,0,0,0,0,0,0,0,0,0,0,0,0,0,1.6397,1.6388,1.6399,1.6415,1.6416,1.6415,1.6415,1.6416,1.6442,1.6443,1.6443,1.6444,1.6456,1.6456,1.6456,1.6439,0,0,1.6455,1.6455,0,0,0,0,0,0,0,0,1.6397,1.6398,1.6412,1.6413,1.6415,1.6427,1.6416,1.6423,1.6442,1.6432,1.6444,1.6444,1.6446,1.6446,1.6448,1.644,1.6441,1.6455,1.6455,1.6455,1.6455,0,0,0,0,0,0,0,1.6396,1.6397,1.6405,1.6412,1.6414,1.642,1.6422,1.6418,1.6434,1.6433,1.6435,1.6437,1.6447,1.6448,1.6448,1.6441,1.6455,1.6455,1.6455,1.6455,1.6421,1.6421,0,0,0,0,0,0,1.6394,1.6396,1.6405,1.6406,1.6408,1.6419,1.6422,1.6423,1.6434,1.6437,1.6436,1.6438,1.6448,1.6448,1.6449,1.6431,1.6455,1.6455,1.6455,1.6422,1.6421,1.642,0,0,0,0,0,0,1.6393,1.6394,1.6404,1.6402,1.6403,1.6419,1.642,1.6423,1.6424,1.6437,1.6439,1.6434,1.6448,1.6449,1.6442,1.6431,1.6455,1.6454,1.6423,1.6422,1.6421,1.6394,0,0,0,0,0,0,1.6393,1.6394,1.6388,1.6401,1.6403,1.6398,1.6419,1.6422,1.6424,1.6426,1.6436,1.6438,1.6449,1.6442,1.6442,1.6431,1.6454,1.6424,1.6422,1.6421,1.6396,1.6392,1.6389,0,0,0,0,0,1.6392,1.6379,1.6388,1.6389,1.6397,1.6397,1.6398,1.6412,1.6423,1.6417,1.6426,1.6438,1.6433,1.6441,1.6441,1.643,1.6425,1.6423,1.6421,1.6398,1.6393,1.6389,0,0,0,0,0,0,1.6362,1.6381,1.6391,1.6382,1.6388,1.6402,1.6395,1.6407,1.6409,1.6411,1.6427,1.6429,1.642,1.6425,1.6434,1.6416,1.6431,1.6429,1.6413,1.6409,1.6405,1.6404,1.6454,0,0,0,0,0,1.6355,1.6355,1.6371,1.6361,1.6364,1.6379,1.6379,1.639,1.6396,1.6398,1.6406,1.6411,1.6411,1.641,1.641,1.6397,1.64,1.639,1.6387,1.6384,1.6381,1.6375,1.6371,1.6415,1.6415,1.6415,0,0,1.6339,1.6349,1.6348,1.6355,1.6361,1.636,1.6381,1.6378,1.6377,1.6398,1.6392,1.6398,1.6405,1.6395,1.6391,1.6398,1.637,1.6381,1.6379,1.6378,1.6373,1.6369,1.6365,1.6414,1.6414,1.6414,0,0,1.631,1.6317,1.6311,1.6317,1.6326,1.6337,1.6335,1.6348,1.6353,1.6348,1.6364,1.6362,1.6361,1.6366,1.6367,1.6341,1.6352,1.6341,1.6322,1.6316,1.6312,1.6309,1.63,1.6296,1.6339,1.6339,1.6339,0,1.6288,1.6288,1.6305,1.6302,1.6305,1.6326,1.6318,1.6323,1.6332,1.6333,1.6342,1.6342,1.6347,1.6339,1.6333,1.6334,1.6332,1.6339,1.6312,1.6309,1.6306,1.6297,1.6294,1.6337,1.6338,1.6338,1.6338,0,1.6261,1.626,1.6253,1.6263,1.6265,1.626,1.6276,1.6276,1.6286,1.6296,1.629,1.6298,1.6301,1.63,1.631,1.6293,1.6298,1.6309,1.6324,1.63,1.6292,1.6289,1.6335,1.6336,1.6336,1.6337,0,0,1.6211,1.6232,1.6229,1.6234,1.6247,1.6246,1.6242,1.6247,1.6246,1.6251,1.6248,1.6248,1.6259,1.6261,1.6271,1.6266,1.6245,1.6278,1.6278,1.6271,1.6227,1.6218,1.6213,1.6253,1.6252,1.6252,1.6226,0,1.6183,1.6178,1.6195,1.6185,1.6185,1.6206,1.6202,1.6209,1.6218,1.6218,1.6228,1.6227,1.6242,1.6244,1.6239,1.6248,1.6236,1.625,1.6248,1.6248,1.6245,1.6209,1.6199,1.6174,1.6223,1.6222,1.6222,0,1.615,1.6156,1.6146,1.6161,1.6162,1.6158,1.6164,1.6164,1.6173,1.618,1.6183,1.6196,1.6193,1.6208,1.6203,1.6212,1.6213,1.6217,1.6217,1.6216,1.6233,1.6207,1.6167,1.6163,1.6217,1.6218,1.6218,0,1.6114,1.6119,1.6115,1.6119,1.6136,1.6133,1.6139,1.6149,1.6151,1.6156,1.6157,1.6161,1.6162,1.6165,1.6178,1.6188,1.6171,1.6188,1.6176,1.6175,1.617,1.617,1.6129,1.6172,1.6172,1.6172,1.6172,0,1.6081,1.6074,1.6099,1.6096,1.609,1.6109,1.6101,1.611,1.6119,1.6117,1.6135,1.6133,1.6152,1.6151,1.6162,1.6156,1.6157,1.6161,1.6164,1.6159,1.6159,1.6159,1.6161,1.6171,1.6171,1.6171,1.6171,0,1.6039,1.6055,1.6052,1.6069,1.6074,1.6068,1.6082,1.608,1.6091,1.6089,1.6089,1.6106,1.6107,1.6121,1.6124,1.6132,1.6121,1.6127,1.6118,1.612,1.6107,1.6108,1.6064,1.6059,1.6106,1.6105,1.6105,0,1.6016,1.6012,1.6029,1.6031,1.6037,1.6039,1.6041,1.606,1.6062,1.6072,1.6068,1.6071,1.6074,1.6075,1.6086,1.6089,1.6095,1.608,1.6096,1.6091,1.6094,1.6094,1.6094,1.6076,1.6075,1.6075,1.6074,0,1.5974,1.5983,1.5987,1.5994,1.5997,1.6003,1.601,1.6009,1.603,1.6031,1.6033,1.6036,1.6041,1.6043,1.6049,1.6054,1.6067,1.607,1.6067,1.6061,1.6056,1.6059,1.6108,1.607,1.6071,1.6071,1.6071,1.6071,1.594,1.5938,1.5951,1.5954,1.5962,1.5969,1.5968,1.598,1.5982,1.5989,1.5999,1.6,1.6009,1.6018,1.6023,1.6023,1.6031,1.6027,1.6026,1.6024,1.6022,1.6057,1.6024,1.6024,1.6024,1.6025,1.6025,0,1.5899,1.5909,1.5912,1.5923,1.5926,1.594,1.5949,1.595,1.5951,1.5959,1.5963,1.5965,1.5968,1.5981,1.5985,1.5983,1.5989,1.5983,1.5983,1.5984,1.6015,1.6017,1.5978,1.5978,1.5978,1.5978,1.5978,1.5978,1.5878,1.5875,1.5885,1.5886,1.5895,1.5897,1.5901,1.5907,1.5914,1.5917,1.592,1.5929,1.5939,1.5944,1.5947,1.5951,1.5951,1.5943,1.5949,1.5977,1.5981,1.5986,1.5988,1.5943,1.5943,1.5918,1.5917,1.5917]}]]